Content
SEND FEEDBACK

Daily
Averages
Monthly
Summary
Philippines

OLONGAPO, PHILIPPINES


Home > Asia > Philippines
Elevation: 55 feet     Latitude: 14 48N     Longitude: 120 16E

WEATHER
 
SELECT A DAY
Number of Records: 135,020;   Date Range: 7/31/96 - 8/12/14
 
SHARE

PRINT THIS DATA

[ ← Previous Day ]
WEATHER ALMANAC - AUGUST 2, 2013
[ Next Day → ]
[ °C ]   °F
We're sorry. There is no daily almanac available for Olongapo, Philippines on August 2, 2013.
WEATHER BY HOUR - AUGUST 2, 2013
[ °C ]   °F
Local TimeTemperatureDewpointHumidityBarometerVisibilityWind DirectionWind SpeedGust SpeedPrecipitationEventsConditions
2:00 AM78.8 °F75.2 °F89 %29.74 in6.2 miSouth (170°)5.8 mphMostly Cloudy
5:00 AM80.0 °F76.0 °F82 %29.75 in11.0 miSSE (150°)6.7 mphHaze
5:00 AM78.8 °F75.2 °F89 %29.74 in6.2 miSouth (180°)8.1 mphMostly Cloudy
6:00 AM80.6 °F75.2 °F84 %29.74 in6.2 miSouth (190°)5.8 mphOvercast
7:00 AM80.6 °F75.2 °F84 %29.77 in6.2 miEast (80°)4.6 mphMostly Cloudy
8:00 AM82.4 °F75.2 °F79 %29.80 in6.2 miEast (100°)4.6 mphOvercast
8:00 AM82.0 °F76.0 °F76 %29.80 in9.0 miEast (100°)4.5 mphHaze
9:00 AM82.4 °F75.2 °F79 %29.80 in6.2 miCalmOvercast
10:00 AM84.2 °F77.0 °F79 %29.80 in6.2 miWest (270°)2.3 mphOvercast
11:00 AM88.0 °F77.0 °F62 %29.80 in11.0 miSouth (190°)4.5 mphRainLight Rain Showers
11:00 AM87.8 °F77.0 °F70 %29.80 in6.2 miWest (270°)3.5 mphRainLight Rain Showers
12:00 PM93.2 °F78.8 °F63 %29.80 in6.2 miSouth (180°)8.1 mphMostly Cloudy
1:00 PM91.4 °F77.0 °F63 %29.77 in6.2 miSouth (180°)11.5 mphMostly Cloudy
2:00 PM91.0 °F75.0 °F52 %29.78 in11.0 miSouth (180°)8.9 mphOvercast
2:00 PM91.4 °F75.2 °F59 %6.2 miSouth (180°)8.1 mphOvercast
3:00 PM91.4 °F77.0 °F63 %29.77 in6.2 miSouth (190°)8.1 mphOvercast
4:00 PM87.8 °F78.8 °F75 %29.77 in6.2 miSSW (200°)5.8 mphOvercast
5:00 PM88.0 °F78.0 °F66 %29.78 in12.0 miSW (220°)6.7 mphHaze
5:00 PM87.8 °F78.8 °F75 %29.77 in6.2 miSW (220°)5.8 mphMostly Cloudy
6:00 PM87.8 °F78.8 °F75 %29.77 in6.2 miSSW (200°)4.6 mphMostly Cloudy
7:00 PM82.4 °F77.0 °F84 %29.80 in6.2 miSSE (160°)2.3 mphMostly Cloudy
8:00 PM82.4 °F77.0 °F84 %29.83 in6.2 miEast (80°)2.3 mphScattered Clouds
9:00 PM82.4 °F77.0 °F84 %29.86 in6.2 miENE (70°)4.6 mphPartly Cloudy
10:00 PM80.6 °F77.0 °F89 %29.89 in6.2 miEast (80°)2.3 mphPartly Cloudy
11:00 PM80.0 °F76.0 °F84 %29.91 in11.0 miENE (70°)6.7 mphHaze
Hourly data recorded from RPLB, located miles away from Olongapo, Philippines







STORIES FROM OUR PARTNERS